NOO6340 RJFU-RJKA

Flight info

Callsign NOO6340
Flight time 1h 11m
Altitude 29000
Route AKE HKC/N0312F280 YKE AME
Aircraft B350/L-SBGRW/S

Departure

Time 2026-04-26 23:30
Airport Nagasaki Airport (RJFU)

Arrival

Time 2026-04-27 00:42
Airport Amami Airport (RJKA)
Time Latitude Longitude Altitude Speed Heading
2026-04-26 23:12 32.91672 129.91884 12 ft 0 kts 48°
2026-04-26 23:25 32.91650 129.91854 11 ft 17 kts 49°
2026-04-26 23:25 32.91636 129.91825 11 ft 9 kts 207°
2026-04-26 23:25 32.91593 129.91745 10 ft 15 kts 282°
2026-04-26 23:26 32.91673 129.91641 7 ft 20 kts 318°
2026-04-26 23:26 32.91784 129.91525 7 ft 22 kts 318°
2026-04-26 23:26 32.91905 129.91397 4 ft 25 kts 316°
2026-04-26 23:26 32.92032 129.91259 7 ft 25 kts 319°
2026-04-26 23:27 32.92165 129.91120 8 ft 26 kts 318°
2026-04-26 23:27 32.92298 129.90978 10 ft 26 kts 320°
2026-04-26 23:27 32.92437 129.90831 9 ft 27 kts 315°
2026-04-26 23:27 32.92534 129.90726 6 ft 29 kts 317°
2026-04-26 23:28 32.92726 129.90519 6 ft 17 kts 321°
2026-04-26 23:28 32.92781 129.90416 6 ft 17 kts 269°
2026-04-26 23:28 32.92721 129.90319 6 ft 12 kts 209°
2026-04-26 23:28 32.92649 129.90326 7 ft 10 kts 134°
2026-04-26 23:29 32.92625 129.90351 7 ft 0 kts 137°
2026-04-26 23:29 32.92529 129.90454 8 ft 62 kts 138°
2026-04-26 23:29 32.92012 129.91005 11 ft 129 kts 139°
2026-04-26 23:29 32.91244 129.91808 173 ft 160 kts 137°
2026-04-26 23:30 32.90351 129.92733 528 ft 185 kts 141°
2026-04-26 23:30 32.89230 129.93624 984 ft 198 kts 152°
2026-04-26 23:30 32.87993 129.94313 1723 ft 194 kts 157°
2026-04-26 23:30 32.86703 129.94767 2399 ft 199 kts 175°
2026-04-26 23:31 32.85270 129.94799 2857 ft 213 kts 174°
2026-04-26 23:31 32.83882 129.95329 3532 ft 213 kts 155°
2026-04-26 23:31 32.82572 129.96148 4245 ft 212 kts 151°
2026-04-26 23:31 32.81293 129.97014 4968 ft 211 kts 150°
2026-04-26 23:32 32.80026 129.97893 5661 ft 211 kts 150°
2026-04-26 23:32 32.78753 129.98751 6358 ft 211 kts 154°
2026-04-26 23:32 32.77418 129.99477 7003 ft 211 kts 157°
2026-04-26 23:32 32.76083 130.00223 7660 ft 213 kts 155°
2026-04-26 23:33 32.75198 130.00738 8092 ft 214 kts 156°
2026-04-26 23:33 32.73407 130.01754 8970 ft 217 kts 157°
2026-04-26 23:33 32.72038 130.02526 9643 ft 219 kts 157°
2026-04-26 23:33 32.70655 130.03312 10271 ft 221 kts 157°
2026-04-26 23:34 32.69266 130.04100 10889 ft 223 kts 158°
2026-04-26 23:34 32.67861 130.04893 11510 ft 224 kts 158°
2026-04-26 23:34 32.66926 130.05422 11930 ft 225 kts 159°
2026-04-26 23:34 32.65503 130.06229 12574 ft 227 kts 159°
2026-04-26 23:35 32.64071 130.07038 13221 ft 229 kts 160°
2026-04-26 23:35 32.62629 130.07853 13868 ft 231 kts 160°
2026-04-26 23:35 32.61176 130.08677 14454 ft 232 kts 160°
2026-04-26 23:35 32.59715 130.09503 15035 ft 233 kts 161°
2026-04-26 23:36 32.58246 130.10331 15639 ft 234 kts 162°
2026-04-26 23:36 32.56765 130.11167 16246 ft 235 kts 162°
2026-04-26 23:36 32.55301 130.11994 16839 ft 236 kts 163°
2026-04-26 23:36 32.53815 130.12832 17450 ft 237 kts 164°
2026-04-26 23:37 32.52325 130.13673 18031 ft 238 kts 165°
2026-04-26 23:37 32.50830 130.14515 18589 ft 238 kts 165°
2026-04-26 23:37 32.49336 130.15389 19120 ft 239 kts 164°
2026-04-26 23:37 32.47825 130.16220 19527 ft 245 kts 167°
2026-04-26 23:38 32.46198 130.17069 19689 ft 263 kts 165°
2026-04-26 23:38 32.44519 130.18011 19994 ft 270 kts 165°
2026-04-26 23:38 32.42795 130.18943 20317 ft 275 kts 165°
2026-04-26 23:38 32.41034 130.19893 20633 ft 279 kts 165°
2026-04-26 23:39 32.39281 130.20853 20945 ft 282 kts 165°
2026-04-26 23:39 32.37483 130.21823 21258 ft 284 kts 165°
2026-04-26 23:39 32.35684 130.22802 21592 ft 285 kts 165°
2026-04-26 23:39 32.33875 130.23782 21920 ft 286 kts 165°
2026-04-26 23:40 32.32059 130.24765 22257 ft 287 kts 165°
2026-04-26 23:40 32.30242 130.25751 22593 ft 287 kts 165°
2026-04-26 23:40 32.28411 130.26741 22828 ft 293 kts 165°
2026-04-26 23:40 32.26549 130.27744 22904 ft 302 kts 165°
2026-04-26 23:41 32.24615 130.28795 22946 ft 309 kts 165°
2026-04-26 23:41 32.22635 130.29867 22968 ft 316 kts 165°
2026-04-26 23:41 32.20609 130.30961 22980 ft 321 kts 164°
2026-04-26 23:41 32.18589 130.32054 22985 ft 326 kts 164°
2026-04-26 23:42 32.16516 130.33173 22984 ft 329 kts 164°
2026-04-26 23:42 32.12315 130.35440 22994 ft 334 kts 164°
2026-04-26 23:42 32.10191 130.36585 22995 ft 336 kts 164°
2026-04-26 23:43 32.08063 130.37733 22990 ft 337 kts 164°
2026-04-26 23:43 32.05924 130.38885 22990 ft 338 kts 164°
2026-04-26 23:43 32.03782 130.40036 22983 ft 338 kts 163°
2026-04-26 23:43 32.01645 130.41188 22989 ft 338 kts 163°
2026-04-26 23:44 31.99504 130.42341 22997 ft 339 kts 164°
2026-04-26 23:44 31.97384 130.43476 22989 ft 340 kts 164°
2026-04-26 23:44 31.95229 130.44636 22983 ft 340 kts 164°
2026-04-26 23:44 31.93075 130.45792 22983 ft 340 kts 164°
2026-04-26 23:45 31.90919 130.46950 22980 ft 340 kts 164°
2026-04-26 23:45 31.88765 130.48105 22971 ft 340 kts 164°
2026-04-26 23:45 31.86611 130.49260 22971 ft 340 kts 164°
2026-04-26 23:45 31.84461 130.50411 22975 ft 340 kts 164°
2026-04-26 23:46 31.82307 130.51567 22978 ft 340 kts 164°
2026-04-26 23:46 31.80154 130.52718 22973 ft 340 kts 164°
2026-04-26 23:46 31.78023 130.53858 22968 ft 341 kts 164°
2026-04-26 23:46 31.75867 130.55012 22964 ft 340 kts 164°
2026-04-26 23:47 31.73714 130.56160 22972 ft 339 kts 165°
2026-04-26 23:47 31.71509 130.57010 22971 ft 329 kts 176°
2026-04-26 23:47 31.69273 130.57531 22973 ft 326 kts 179°
2026-04-26 23:47 31.67028 130.57968 22970 ft 326 kts 180°
2026-04-26 23:48 31.64790 130.58371 22976 ft 326 kts 181°
2026-04-26 23:48 31.62546 130.58750 22969 ft 324 kts 184°
2026-04-26 23:48 31.60320 130.58874 22973 ft 318 kts 189°
2026-04-26 23:48 31.58127 130.58993 22975 ft 321 kts 185°
2026-04-26 23:49 31.55904 130.59148 22977 ft 319 kts 187°
2026-04-26 23:49 31.53688 130.59268 22978 ft 320 kts 186°
2026-04-26 23:49 31.51461 130.59416 22980 ft 319 kts 187°
2026-04-26 23:49 31.49239 130.59546 22984 ft 319 kts 187°
2026-04-26 23:50 31.47014 130.59684 22985 ft 320 kts 186°
2026-04-26 23:50 31.44795 130.59821 22982 ft 319 kts 187°
2026-04-26 23:50 31.42576 130.59954 22988 ft 319 kts 186°
2026-04-26 23:50 31.40352 130.60092 22989 ft 320 kts 186°
2026-04-26 23:51 31.38160 130.60225 22989 ft 319 kts 186°
2026-04-26 23:51 31.35937 130.60360 22991 ft 320 kts 186°
2026-04-26 23:51 31.33715 130.60496 22989 ft 320 kts 186°
2026-04-26 23:51 31.31490 130.60631 22988 ft 320 kts 186°
2026-04-26 23:52 31.29270 130.60767 22989 ft 320 kts 186°
2026-04-26 23:52 31.27046 130.60903 22985 ft 320 kts 186°
2026-04-26 23:52 31.24822 130.61036 22985 ft 320 kts 186°
2026-04-26 23:52 31.22591 130.61173 22992 ft 320 kts 186°
2026-04-26 23:53 31.20365 130.61308 22985 ft 320 kts 186°
2026-04-26 23:53 31.18138 130.61443 22978 ft 320 kts 186°
2026-04-26 23:53 31.15910 130.61579 22984 ft 320 kts 186°
2026-04-26 23:53 31.13709 130.61712 22979 ft 320 kts 186°
2026-04-26 23:54 31.11484 130.61847 22985 ft 320 kts 186°
2026-04-26 23:54 31.09255 130.61982 22987 ft 320 kts 186°
2026-04-26 23:54 31.07028 130.62117 22988 ft 320 kts 186°
2026-04-26 23:54 31.04800 130.62252 22988 ft 321 kts 186°
2026-04-26 23:55 31.02570 130.62387 22988 ft 321 kts 186°
2026-04-26 23:55 31.00342 130.62521 22990 ft 321 kts 186°
2026-04-26 23:55 30.98113 130.62657 22987 ft 321 kts 186°
2026-04-26 23:55 30.95884 130.62791 22989 ft 321 kts 186°
2026-04-26 23:56 30.93647 130.62926 22989 ft 321 kts 186°
2026-04-26 23:56 30.91414 130.63062 22988 ft 321 kts 186°
2026-04-26 23:56 30.89176 130.63196 22987 ft 321 kts 186°
2026-04-26 23:56 30.86970 130.63330 22989 ft 322 kts 186°
2026-04-26 23:57 30.84735 130.63464 22988 ft 322 kts 186°
2026-04-26 23:57 30.82500 130.63599 22988 ft 322 kts 186°
2026-04-26 23:57 30.80259 130.63734 22988 ft 322 kts 186°
2026-04-26 23:57 30.78021 130.63869 22989 ft 322 kts 186°
2026-04-26 23:58 30.75783 130.64003 22989 ft 322 kts 186°
2026-04-26 23:58 30.73544 130.64138 22989 ft 322 kts 186°
2026-04-26 23:58 30.71305 130.64273 22987 ft 322 kts 186°
2026-04-26 23:58 30.69064 130.64408 22988 ft 323 kts 186°
2026-04-26 23:59 30.66816 130.64543 22991 ft 323 kts 186°
2026-04-26 23:59 30.64572 130.64678 22992 ft 323 kts 186°
2026-04-26 23:59 30.62327 130.64812 22993 ft 323 kts 186°
2026-04-26 23:59 30.60082 130.64947 22992 ft 323 kts 186°
2026-04-27 00:00 30.57856 130.65081 22990 ft 323 kts 186°
2026-04-27 00:00 30.55608 130.65215 22993 ft 324 kts 186°
2026-04-27 00:00 30.53360 130.65351 22991 ft 324 kts 186°
2026-04-27 00:00 30.51105 130.65484 22993 ft 324 kts 186°
2026-04-27 00:01 30.48849 130.65620 22994 ft 324 kts 186°
2026-04-27 00:01 30.46595 130.65755 22992 ft 324 kts 186°
2026-04-27 00:01 30.44343 130.65889 22993 ft 324 kts 186°
2026-04-27 00:01 30.42089 130.66017 22990 ft 323 kts 188°
2026-04-27 00:02 30.39900 130.65769 22992 ft 311 kts 201°
2026-04-27 00:02 30.37815 130.65149 22991 ft 308 kts 205°
2026-04-27 00:02 30.35793 130.64444 22986 ft 307 kts 206°
2026-04-27 00:02 30.33766 130.63698 22968 ft 304 kts 206°
2026-04-27 00:03 30.31757 130.62947 23000 ft 303 kts 207°
2026-04-27 00:03 30.29749 130.62185 23001 ft 303 kts 208°
2026-04-27 00:03 30.27831 130.61231 22999 ft 298 kts 214°
2026-04-27 00:03 30.25924 130.60260 22996 ft 301 kts 211°
2026-04-27 00:04 30.23989 130.59319 22994 ft 301 kts 212°
2026-04-27 00:04 30.22066 130.58345 22991 ft 302 kts 212°
2026-04-27 00:04 30.20133 130.57392 22989 ft 302 kts 212°
2026-04-27 00:04 30.18204 130.56430 22991 ft 302 kts 212°
2026-04-27 00:05 30.16270 130.55468 22991 ft 302 kts 212°
2026-04-27 00:05 30.14362 130.54521 22990 ft 302 kts 212°
2026-04-27 00:05 30.12426 130.53558 22991 ft 303 kts 212°
2026-04-27 00:05 30.10488 130.52596 22991 ft 303 kts 212°
2026-04-27 00:06 30.08553 130.51635 22989 ft 303 kts 212°
2026-04-27 00:06 30.06617 130.50675 22991 ft 303 kts 212°
2026-04-27 00:06 30.04680 130.49714 22991 ft 303 kts 212°
2026-04-27 00:06 30.02745 130.48755 22990 ft 303 kts 212°
2026-04-27 00:07 30.00807 130.47794 22992 ft 303 kts 212°
2026-04-27 00:07 29.98869 130.46834 22990 ft 303 kts 212°
2026-04-27 00:07 29.96929 130.45873 22990 ft 303 kts 212°
2026-04-27 00:07 29.94991 130.44914 22991 ft 303 kts 212°
2026-04-27 00:08 29.93073 130.43965 22991 ft 303 kts 212°
2026-04-27 00:08 29.91127 130.43003 22989 ft 303 kts 212°
2026-04-27 00:08 29.89185 130.42043 22995 ft 303 kts 212°
2026-04-27 00:08 29.87246 130.41084 22992 ft 303 kts 212°
2026-04-27 00:09 29.85309 130.40129 22995 ft 303 kts 212°
2026-04-27 00:09 29.83392 130.39181 22991 ft 303 kts 212°
2026-04-27 00:09 29.81454 130.38225 22996 ft 303 kts 212°
2026-04-27 00:09 29.79512 130.37267 22995 ft 303 kts 212°
2026-04-27 00:10 29.77567 130.36308 22992 ft 303 kts 212°
2026-04-27 00:10 29.75627 130.35352 22992 ft 303 kts 212°
2026-04-27 00:10 29.73686 130.34396 22994 ft 303 kts 212°
2026-04-27 00:10 29.71745 130.33440 22992 ft 303 kts 212°
2026-04-27 00:11 29.69801 130.32483 22991 ft 304 kts 212°
2026-04-27 00:11 29.67861 130.31528 22991 ft 304 kts 212°
2026-04-27 00:11 29.65917 130.30572 22995 ft 304 kts 212°
2026-04-27 00:11 29.63974 130.29617 22994 ft 304 kts 212°
2026-04-27 00:12 29.62029 130.28661 22998 ft 304 kts 212°
2026-04-27 00:12 29.60106 130.27717 22997 ft 304 kts 212°
2026-04-27 00:12 29.58160 130.26761 22999 ft 304 kts 212°
2026-04-27 00:12 29.56214 130.25806 22998 ft 304 kts 212°
2026-04-27 00:13 29.54266 130.24850 22994 ft 304 kts 211°
2026-04-27 00:13 29.52321 130.23896 22997 ft 304 kts 211°
2026-04-27 00:13 29.50375 130.22943 22996 ft 304 kts 211°
2026-04-27 00:13 29.48430 130.21990 22998 ft 304 kts 211°
2026-04-27 00:14 29.46485 130.21036 23001 ft 304 kts 211°
2026-04-27 00:14 29.44535 130.20082 22998 ft 304 kts 211°
2026-04-27 00:14 29.42590 130.19131 23000 ft 304 kts 211°
2026-04-27 00:14 29.40640 130.18177 22998 ft 304 kts 211°
2026-04-27 00:15 29.38714 130.17235 23000 ft 304 kts 211°
2026-04-27 00:15 29.36764 130.16282 22998 ft 304 kts 211°
2026-04-27 00:15 29.34808 130.15326 23004 ft 304 kts 211°
2026-04-27 00:15 29.32860 130.14374 22998 ft 305 kts 211°
2026-04-27 00:16 29.30908 130.13423 22999 ft 305 kts 211°
2026-04-27 00:16 29.28956 130.12469 23004 ft 305 kts 211°
2026-04-27 00:16 29.27005 130.11518 22995 ft 305 kts 211°
2026-04-27 00:16 29.25054 130.10567 23005 ft 305 kts 211°
2026-04-27 00:17 29.23098 130.09613 23001 ft 305 kts 211°
2026-04-27 00:17 29.21172 130.08676 22997 ft 305 kts 211°
2026-04-27 00:17 29.19221 130.07725 22997 ft 305 kts 211°
2026-04-27 00:17 29.17268 130.06774 23003 ft 305 kts 211°
2026-04-27 00:18 29.15317 130.05826 22999 ft 305 kts 211°
2026-04-27 00:18 29.13363 130.04875 23000 ft 305 kts 211°
2026-04-27 00:18 29.11407 130.03924 22997 ft 305 kts 211°
2026-04-27 00:18 29.09453 130.02975 22998 ft 305 kts 211°
2026-04-27 00:19 29.07499 130.02025 22998 ft 305 kts 211°
2026-04-27 00:19 29.05545 130.01077 22996 ft 305 kts 211°
2026-04-27 00:19 29.03589 130.00128 22998 ft 305 kts 211°
2026-04-27 00:19 29.01636 129.99180 22997 ft 305 kts 211°
2026-04-27 00:20 28.99679 129.98231 22999 ft 305 kts 211°
2026-04-27 00:20 28.97721 129.97282 23001 ft 305 kts 211°
2026-04-27 00:20 28.95766 129.96335 22997 ft 306 kts 211°
2026-04-27 00:20 28.93843 129.95407 22997 ft 292 kts 211°
2026-04-27 00:21 28.92014 129.94523 23000 ft 279 kts 212°
2026-04-27 00:21 28.90264 129.93671 23000 ft 268 kts 212°
2026-04-27 00:21 28.88574 129.92855 23001 ft 260 kts 212°
2026-04-27 00:21 28.86933 129.92060 23001 ft 253 kts 213°
2026-04-27 00:22 28.85332 129.91285 23001 ft 247 kts 213°
2026-04-27 00:22 28.83760 129.90526 23002 ft 243 kts 213°
2026-04-27 00:22 28.82214 129.89779 23002 ft 239 kts 213°
2026-04-27 00:22 28.80690 129.89043 23003 ft 237 kts 213°
2026-04-27 00:23 28.79182 129.88315 23006 ft 234 kts 213°
2026-04-27 00:23 28.77686 129.87593 22995 ft 233 kts 213°
2026-04-27 00:23 28.76188 129.86864 22695 ft 243 kts 213°
2026-04-27 00:23 28.74576 129.86088 22352 ft 253 kts 212°
2026-04-27 00:24 28.72927 129.85298 22018 ft 260 kts 213°
2026-04-27 00:24 28.71429 129.84254 21692 ft 254 kts 226°
2026-04-27 00:24 28.70066 129.82955 21369 ft 257 kts 229°
2026-04-27 00:24 28.68727 129.81597 21051 ft 258 kts 230°
2026-04-27 00:25 28.67849 129.80711 20836 ft 254 kts 228°
2026-04-27 00:25 28.66429 129.79508 20522 ft 253 kts 224°
2026-04-27 00:25 28.65034 129.78312 20200 ft 248 kts 226°
2026-04-27 00:25 28.63672 129.77113 19889 ft 246 kts 225°
2026-04-27 00:26 28.62313 129.75955 19581 ft 241 kts 225°
2026-04-27 00:26 28.60989 129.74807 19321 ft 236 kts 226°
2026-04-27 00:26 28.59727 129.73719 19326 ft 220 kts 226°
2026-04-27 00:26 28.58541 129.72696 19315 ft 206 kts 227°
2026-04-27 00:27 28.57508 129.71819 19238 ft 165 kts 229°
2026-04-27 00:27 28.56640 129.71054 18788 ft 155 kts 231°
2026-04-27 00:27 28.55789 129.70290 18121 ft 161 kts 229°
2026-04-27 00:27 28.54871 129.69506 17310 ft 167 kts 227°
2026-04-27 00:28 28.53933 129.68717 16533 ft 168 kts 227°
2026-04-27 00:28 28.53002 129.67915 15774 ft 168 kts 227°
2026-04-27 00:28 28.52077 129.67111 15043 ft 167 kts 227°
2026-04-27 00:28 28.51153 129.66315 14318 ft 166 kts 226°
2026-04-27 00:29 28.50233 129.65527 13574 ft 162 kts 226°
2026-04-27 00:29 28.49360 129.64780 12786 ft 153 kts 226°
2026-04-27 00:29 28.48529 129.64059 12011 ft 149 kts 225°
2026-04-27 00:29 28.47716 129.63342 11252 ft 147 kts 226°
2026-04-27 00:30 28.46916 129.62628 10518 ft 146 kts 224°
2026-04-27 00:30 28.46101 129.61943 9789 ft 146 kts 223°
2026-04-27 00:30 28.45292 129.61276 9009 ft 145 kts 222°
2026-04-27 00:30 28.44478 129.60608 8239 ft 144 kts 222°
2026-04-27 00:31 28.43670 129.59947 7459 ft 142 kts 222°
2026-04-27 00:31 28.42867 129.59293 6719 ft 141 kts 222°
2026-04-27 00:31 28.42068 129.58646 5996 ft 141 kts 221°
2026-04-27 00:31 28.41276 129.57984 5209 ft 143 kts 221°
2026-04-27 00:32 28.40483 129.57292 4426 ft 145 kts 222°
2026-04-27 00:32 28.39685 129.56595 3651 ft 146 kts 221°
2026-04-27 00:32 28.38879 129.55888 3026 ft 145 kts 222°
2026-04-27 00:32 28.38120 129.55239 2582 ft 132 kts 222°
2026-04-27 00:33 28.37360 129.54595 2414 ft 137 kts 222°
2026-04-27 00:33 28.36594 129.53947 2372 ft 137 kts 222°
2026-04-27 00:33 28.35828 129.53300 2416 ft 137 kts 223°
2026-04-27 00:33 28.35056 129.52663 2391 ft 137 kts 220°
2026-04-27 00:34 28.34131 129.52487 2403 ft 146 kts 161°
2026-04-27 00:34 28.33267 129.53111 2451 ft 150 kts 129°
2026-04-27 00:34 28.32751 129.54138 2420 ft 150 kts 114°
2026-04-27 00:34 28.32287 129.55268 1877 ft 167 kts 113°
2026-04-27 00:35 28.31833 129.56459 1510 ft 162 kts 112°
2026-04-27 00:35 28.31418 129.57592 1347 ft 153 kts 111°
2026-04-27 00:35 28.31009 129.58689 1304 ft 146 kts 111°
2026-04-27 00:35 28.30631 129.59725 1274 ft 138 kts 112°
2026-04-27 00:36 28.30275 129.60723 1286 ft 135 kts 112°
2026-04-27 00:36 28.29913 129.61720 1298 ft 138 kts 112°
2026-04-27 00:36 28.29549 129.62722 1301 ft 137 kts 112°
2026-04-27 00:36 28.29206 129.63727 1300 ft 136 kts 102°
2026-04-27 00:37 28.29487 129.64657 1300 ft 126 kts 28°
2026-04-27 00:37 28.30305 129.64843 1309 ft 120 kts 348°
2026-04-27 00:37 28.31136 129.64863 1307 ft 126 kts 20°
2026-04-27 00:37 28.31940 129.65274 1309 ft 128 kts 17°
2026-04-27 00:38 28.32754 129.65641 1287 ft 127 kts 15°
2026-04-27 00:38 28.33567 129.66003 1283 ft 124 kts 16°
2026-04-27 00:38 28.34354 129.66406 1295 ft 124 kts 20°
2026-04-27 00:38 28.35123 129.66857 1297 ft 124 kts 22°
2026-04-27 00:39 28.35893 129.67310 1291 ft 125 kts 21°
2026-04-27 00:39 28.36663 129.67753 1247 ft 118 kts 19°
2026-04-27 00:39 28.37406 129.68136 1072 ft 113 kts 19°
2026-04-27 00:39 28.38102 129.68496 936 ft 112 kts 20°
2026-04-27 00:40 28.38802 129.68885 793 ft 111 kts 21°
2026-04-27 00:40 28.39486 129.69280 664 ft 110 kts 21°
2026-04-27 00:40 28.40166 129.69667 530 ft 109 kts 20°
2026-04-27 00:40 28.40842 129.70044 357 ft 108 kts 19°
2026-04-27 00:41 28.41511 129.70407 205 ft 105 kts 19°
2026-04-27 00:41 28.42172 129.70764 115 ft 107 kts 19°
2026-04-27 00:41 28.42769 129.71094 53 ft 84 kts 17°
2026-04-27 00:41 28.43213 129.71338 53 ft 50 kts 25°
2026-04-27 00:42 28.43404 129.71445 53 ft 19 kts 21°
2026-04-27 00:42 28.43485 129.71430 49 ft 13 kts 319°
2026-04-27 00:42 28.43507 129.71388 52 ft 5 kts 291°
2026-04-27 00:42 28.43524 129.71337 52 ft 8 kts 277°
2026-04-27 00:43 28.43483 129.71276 52 ft 14 kts 206°
2026-04-27 00:43 28.43379 129.71219 52 ft 19 kts 206°
2026-04-27 00:43 28.43248 129.71146 49 ft 22 kts 206°
2026-04-27 00:43 28.43187 129.71098 52 ft 9 kts 268°
2026-04-27 00:44 28.43215 129.71032 52 ft 10 kts 297°
2026-04-27 00:44 28.43238 129.70985 50 ft 4 kts 325°
2026-04-27 00:44 28.43262 129.70997 51 ft 0 kts 32°